Showing default

GEESAT 2-11, 58915

Orbit data source: Space-Track

GEESAT 2-11, 58915 is a payload satellite owned by GeeSpace (CN) in LEO that was launched on Fri, 02 Feb 2024 UTC via a CHANG ZHENG 2C launch vehicle from the Xichang Space Center, China (XSC). Payload-class satellites include a variety of spacecraft equipped with specific instruments for various scientific and technological missions. These include communications satellites like Starlink; space stations such as the ISS; scientific satellites like the Hubble; Earth observation satellites from companies like Planet Labs, Umbra, and HawkEye 360; GPS; miniature CubeSats for education and research; and military/defense satellites.

Loading next visibility...
Identifier
58915, 2024-023L
Orbit
LEO
Country
Flag of CNCN / PRC
Related business
Manufacturer
Taizhou Xingkong
Mission
Operational Commercial Navigation
Bus & Motor
GEESAT1, Unknown motor
Mass
130 kg wet, 130 kg dry
Launch date (UTC)
2024-02-02 (2 years ago)
Launch vehicle
CHANG ZHENG 2C
Launch site
Xichang Space Center, China (XSC)
Object type
Payload
Rocket body
Debris
Shape & HBR
Box + 2 Pan, 1.0 m
Radar Cross Section
0.833 m², Medium (>0.1 m² and < 1m²)

Expand to show TLE details & history
Last TLE update: 18 hours ago

TLE from 18 hours ago
0 GEESAT 2-11
1 58915U 24023L   25249.31625326  .00005406  00000-0  58611-3 0  9998
2 58915  49.9968 231.4132 0008638  82.3812 277.8110 14.89457730 86749
Epoch: 2025-09-06T07:35Z
TLE epoch observation values (Epoch: 2025-09-06T07:35:24.281Z)
Latitude
0.00001°
Longitude
131.9102°
Altitude
599.36 km
Speed
7.562 km/s
True Right ascension
15h 25m 39s
True Declination
0° 00' 00"
Sunlit
Object was in daylight at epoch
Visualization orbit readout
Latitude
Unknown
Longitude
Unknown
Altitude
Unknown
Speed
Unknown
Apparent Right ascension
Unknown
Apparent Declination
Unknown
Sunlit
N/A
Visualization observer readout
Local Sidereal Time
18:08:28
Azimuth
Unknown
Elevation
Unknown
Doppler factor
Unknown
Orbital elements
Apogee altitude
606.418 km
Perigee altitude
594.361 km
Semi-major axis
6,978.527 km
Eccentricity
0.00086
Inclination
49.9968°
RAAN
231.4132°
Arg. of periapsis
82.3812°
True anomaly
277.71292°
Mean anomaly
277.811°
Eccentric anomaly
277.76196°
Mean motion
3.72304 °/min
Orbital period
96.7 mins
BSTAR
0.00058611
Loading maneuver chart data...
Computing Atmospheric mass density...
Loading historical data...
Loading historical data...
Loading historical data...
Loading historical data...
Loading historical data...
Loading historical data...
Loading historical data...

Documentation

Showing up to 5 results
|